Location: Newark
(7.0858°N, 171.3717°E)
Time: 06:10:57
(UTC+00:00)

Courier 1B - Pass Details

Date: 03 December 2020
Orbit: 962 x 1209 km, 28.3° (Epoch: 20 January)

Event Time Altitude Azimuth Distance (km) Brightness Sun altitude
Rises 15:53:16 0° 298° (WNW) 3,921 - -37.6°
Reaches altitude 10° 15:55:58 10° 297° (WNW) 2,997 - -37.0°
Maximum altitude 16:03:26 83° 211° (SSW) 1,180 - -35.3°
Exits shadow 16:04:21 71° 141° (SE) 1,231 8.0 -35.1°
Drops below altitude 10° 16:11:17 10° 122° (ESE) 3,130 10.9 -33.5°
Sets 16:14:10 0° 122° (ESE) 4,104 11.8 -32.8°
